Flag for Canada Weather past 2 weeks in Cape Dorset, Nunavut, Canada

Now
25 °F

Light snow. Overcast.


Feels Like: 20 °F
Forecast: N/A
Wind: 3 mph from West

Location: Cape Dorset

Current Time: May 27, 2015 at 5:01:14 PM

Latest Report: May 27, 2015 at 4:00 PM


Visibility: 15 mi

Pressure: 29.93 "Hg

Humidity: 63%

Dew point: 14 °F

Location of Cape DorsetLocation

Historic Weather in Cape Dorset — Graph

°F

Cape Dorset temperature yesterday

Maximum temperature yesterday: 23 °F (at 12:00 AM)
Minimum temperature yesterday: 16 °F (at 11:54 PM)
Average temperature yesterday: 21 °F

Past Weeks' High & Low Weather Summary

 TemperatureHumidityPressure
High34 °F (May 16, 12:02 PM)100% (May 13, 5:00 PM)30.01 "Hg (May 13, 5:00 PM)
Low12 °F (May 25, 8:00 AM)59% (May 19, 3:00 PM)29.36 "Hg (May 24, 10:58 PM)
Average24 °F87%29.69 "Hg
* Reported May 12 4:00 PM — May 27 4:00 PM, Cape Dorset, Weather by CustomWeather, © 2015

Note: Actual official high and low records may vary slightly from our data, if they occured in-between our weather recording intervals... More about our weather records

Advertising

Cape Dorset weather history for previous 24 hours

 ConditionsComfort  
Time TempWeatherWind HumidityBarometerVisibility
4:00 PM
Wed, May 27
25 °FLight snow. Overcast.3 mph63%29.93 "Hg15 mi
3:00 PM23 °FOvercast.3 mph68%29.93 "Hg15 mi
2:00 PM23 °FLight snow. Overcast.2 mph63%29.93 "Hg15 mi
1:00 PM23 °FLight snow. Overcast.5 mph74%29.93 "Hg15 mi
12:00 PM23 °FLight snow. Overcast.6 mph74%29.93 "Hg15 mi
11:00 AM21 °FLight snow. Overcast.2 mph86%29.93 "Hg15 mi
10:00 AM21 °FLight snow. Overcast.2 mph80%29.94 "Hg15 mi
9:00 AM21 °FLight snow. Overcast.2 mph74%29.93 "Hg15 mi
8:00 AM19 °FLight snow. Overcast.2 mph86%29.93 "Hg15 mi
7:00 AM19 °FLight snow. Overcast.2 mph73%29.93 "Hg9 mi
6:02 AM18 °FLight snow. Overcast.3 mph79%29.92 "Hg9 mi
5:00 AM18 °FOvercast.3 mph79%29.91 "Hg9 mi
4:00 AM18 °FOvercast.3 mph79%29.91 "Hg9 mi
3:00 AM16 °FOvercast.5 mph86%29.91 "Hg9 mi
2:00 AM16 °FPassing clouds.5 mph86%29.91 "Hg9 mi
1:00 AM14 °FPassing clouds.5 mph85%29.91 "Hg9 mi
12:00 AM16 °FPassing clouds.2 mph86%29.90 "Hg9 mi
11:54 PM
Tue, May 26
16 °FPassing clouds.3 mph86%29.89 "Hg9 mi
11:00 PM18 °FSunny.3 mph86%29.89 "Hg9 mi
10:00 PM19 °FSunny.No wind79%29.89 "Hg9 mi
9:00 PM19 °FSunny.2 mph79%29.88 "Hg9 mi
8:00 PM21 °FSunny.5 mph80%29.87 "Hg9 mi
7:00 PM21 °FSunny.6 mph80%29.86 "Hg9 mi
6:00 PM23 °FSunny.9 mph74%29.85 "Hg9 mi
5:00 PM23 °FSunny.9 mph80%29.83 "Hg9 mi
Weather by CustomWeather, © 2015

See weather overviewHow to use our weather pages